This is the latest recevied weather packets stored in our database for station/object W6UA-13. If no packets are shown the sender has not sent any weather packets the latest 10 day(s).
| Time | Temp. | Humidity | Pressure | Rain* | Wind** | Luminosity | Snow |
|---|---|---|---|---|---|---|---|
| 1777907082 | 10.56° C | 81% | 1014.9 hPa | 0 mm | - | 93 W/m² | - |
| 1777905282 | 10° C | 82% | 1014.8 hPa | 0 mm | - | 62 W/m² | - |
| 1777903482 | 8.89° C | 84% | 1014.7 hPa | 0 mm | - | 86 W/m² | - |
| 1777901682 | 8.33° C | 85% | 1014.5 hPa | 0 mm | - | 12 W/m² | - |
| 1777900782 | 8.33° C | 85% | 1014.4 hPa | 0 mm | - | 7 W/m² | - |
| 1777898082 | 8.33° C | 84% | 1014.1 hPa | 0 mm | - | 0 W/m² | - |
| 1777897182 | 8.33° C | 84% | 1014.1 hPa | 0 mm | - | 0 W/m² | - |
| 1777896282 | 8.33° C | 84% | 1014.2 hPa | 0 mm | - | 0 W/m² | - |
| 1777894482 | 8.89° C | 84% | 1014.4 hPa | 0 mm | - | 0 W/m² | - |
| 1777893582 | 8.89° C | 84% | 1014.5 hPa | 0 mm | - | 0 W/m² | - |
| 1777892682 | 8.89° C | 84% | 1014.7 hPa | 0 mm | - | 0 W/m² | - |
| 1777890882 | 8.89° C | 84% | 1014.6 hPa | 0 mm | - | 0 W/m² | - |
| 1777889982 | 8.89° C | 84% | 1014.7 hPa | 0 mm | - | 0 W/m² | - |
| 1777889083 | 8.89° C | 84% | 1014.6 hPa | 0 mm | - | 0 W/m² | - |
| 1777888183 | 8.89° C | 84% | 1014.8 hPa | 0 mm | - | 0 W/m² | - |
| 1777887283 | 8.89° C | 85% | 1014.9 hPa | 0 mm | - | 0 W/m² | - |
| 1777886383 | 8.89° C | 85% | 1014.8 hPa | 0 mm | - | 0 W/m² | - |
| 1777885483 | 8.89° C | 85% | 1015 hPa | 0 mm | - | 0 W/m² | - |
| 1777884583 | 8.33° C | 85% | 1015.3 hPa | 0 mm | - | 0 W/m² | - |
| 1777883683 | 8.89° C | 85% | 1015.3 hPa | 0 mm | - | 0 W/m² | - |
| 1777882783 | 8.89° C | 85% | 1015.4 hPa | 0 mm | - | 0 W/m² | - |
| 1777881883 | 8.89° C | 84% | 1015.4 hPa | 0 mm | - | 0 W/m² | - |
| 1777880983 | 8.89° C | 84% | 1015.2 hPa | 0 mm | - | 0 W/m² | - |
| 1777880083 | 8.89° C | 84% | 1015.4 hPa | 0 mm | - | 0 W/m² | - |
| 1777879183 | 8.89° C | 84% | 1015.4 hPa | 0 mm | - | 0 W/m² | - |
* Rain latest hour (hover to see other rain measurements)
** Current wind speed in m/s (hover to see current wind gust speed)